DLH918 LBSF-HEGN

Flight info

Callsign DLH918
Flight time N/A
Altitude 41000
Route OMENO Y505 NIKTI UN127 IMR UN128 RDS UL995 VANZA DCT RASDA A16 CVO L315 SOKOT SOKOT1A
Aircraft A343/H-SDE2E3FGHIJ4J5M1RWXY/LB1D1

Departure

Time 2026-04-28 15:41
Airport Sofia Airport (LBSF)

Arrival

Time N/A
Airport Hurghada International Airport (HEGN)
Time Latitude Longitude Altitude Speed Heading
2026-04-28 14:59 42.69031 23.40575 1753 ft 0 kts 196°
2026-04-28 15:27 42.69029 23.40574 1753 ft 1 kts 196°
2026-04-28 15:27 42.68996 23.40568 1750 ft 6 kts 178°
2026-04-28 15:27 42.68965 23.40609 1744 ft 10 kts 119°
2026-04-28 15:28 42.68930 23.40758 1748 ft 19 kts 108°
2026-04-28 15:28 42.68923 23.40930 1748 ft 18 kts 75°
2026-04-28 15:28 42.68962 23.41093 1743 ft 18 kts 71°
2026-04-28 15:28 42.69021 23.41209 1745 ft 17 kts 26°
2026-04-28 15:29 42.69135 23.41184 1749 ft 18 kts 342°
2026-04-28 15:29 42.69274 23.41161 1749 ft 21 kts
2026-04-28 15:29 42.69405 23.41199 1747 ft 14 kts 12°
2026-04-28 15:29 42.69481 23.41280 1745 ft 15 kts 76°
2026-04-28 15:30 42.69475 23.41462 1748 ft 21 kts 95°
2026-04-28 15:30 42.69463 23.41655 1749 ft 20 kts 95°
2026-04-28 15:30 42.69451 23.41850 1747 ft 20 kts 94°
2026-04-28 15:30 42.69442 23.42007 1750 ft 15 kts 95°
2026-04-28 15:31 42.69431 23.42193 1755 ft 23 kts 95°
2026-04-28 15:31 42.69417 23.42426 1749 ft 26 kts 94°
2026-04-28 15:31 42.69403 23.42667 1749 ft 25 kts 94°
2026-04-28 15:31 42.69389 23.42904 1752 ft 25 kts 94°
2026-04-28 15:32 42.69374 23.43137 1753 ft 25 kts 95°
2026-04-28 15:32 42.69366 23.43292 1756 ft 25 kts 95°
2026-04-28 15:32 42.69347 23.43601 1749 ft 24 kts 94°
2026-04-28 15:32 42.69341 23.43708 1751 ft 1 kts 94°
2026-04-28 15:33 42.69338 23.43749 1764 ft 7 kts 96°
2026-04-28 15:33 42.69334 23.43814 1766 ft 5 kts 95°
2026-04-28 15:33 42.69334 23.43820 1765 ft 0 kts 95°
2026-04-28 15:34 42.69333 23.43855 1767 ft 6 kts 88°
2026-04-28 15:34 42.69341 23.43896 1767 ft 7 kts 65°
2026-04-28 15:35 42.69377 23.43938 1768 ft 7 kts 24°
2026-04-28 15:35 42.69390 23.43941 1766 ft 0 kts
2026-04-28 15:39 42.69402 23.43944 1769 ft 6 kts
2026-04-28 15:39 42.69480 23.43946 1765 ft 13 kts 347°
2026-04-28 15:39 42.69517 23.43878 1765 ft 8 kts 283°
2026-04-28 15:39 42.69518 23.43853 1767 ft 0 kts 275°
2026-04-28 15:40 42.69520 23.43829 1767 ft 13 kts 275°
2026-04-28 15:40 42.69549 23.43392 1749 ft 82 kts 274°
2026-04-28 15:40 42.69611 23.42347 1748 ft 141 kts 274°
2026-04-28 15:40 42.69732 23.40819 1927 ft 172 kts 284°
2026-04-28 15:41 42.69964 23.39228 2652 ft 172 kts 296°
2026-04-28 15:41 42.70869 23.38309 3425 ft 174 kts 350°
2026-04-28 15:41 42.72154 23.38192 3977 ft 200 kts 353°
2026-04-28 15:41 42.73640 23.37843 4458 ft 233 kts 347°
2026-04-28 15:42 42.75234 23.37268 5362 ft 243 kts 344°
2026-04-28 15:42 42.76950 23.36987 6313 ft 256 kts
2026-04-28 15:42 42.78621 23.37945 7291 ft 271 kts 37°
2026-04-28 15:42 42.79695 23.40097 8269 ft 284 kts 70°
2026-04-28 15:43 42.79796 23.42819 9201 ft 296 kts 103°
2026-04-28 15:43 42.78845 23.45301 10157 ft 300 kts 133°
2026-04-28 15:43 42.77343 23.47388 10754 ft 319 kts 136°
2026-04-28 15:43 42.75771 23.49606 11205 ft 339 kts 133°
2026-04-28 15:44 42.74137 23.51997 11860 ft 349 kts 137°
2026-04-28 15:44 42.72135 23.53895 12636 ft 353 kts 155°
2026-04-28 15:44 42.69873 23.55283 13432 ft 359 kts 160°
2026-04-28 15:44 42.67553 23.56618 14320 ft 362 kts 159°
2026-04-28 15:45 42.65224 23.57971 15070 ft 367 kts 159°
2026-04-28 15:45 42.62877 23.59349 15759 ft 374 kts 159°
2026-04-28 15:45 42.60464 23.60776 16503 ft 380 kts 158°
2026-04-28 15:45 42.58017 23.62229 17247 ft 386 kts 158°
2026-04-28 15:46 42.55514 23.63634 17988 ft 391 kts 163°
2026-04-28 15:46 42.52894 23.64405 18663 ft 392 kts 179°
2026-04-28 15:46 42.50148 23.64185 19330 ft 390 kts 195°
2026-04-28 15:46 42.47632 23.63002 19984 ft 387 kts 211°
2026-04-28 15:47 42.45296 23.61187 20649 ft 389 kts 216°
2026-04-28 15:47 42.42986 23.59236 21314 ft 392 kts 216°
2026-04-28 15:47 42.40657 23.57268 21975 ft 396 kts 216°
2026-04-28 15:47 42.38307 23.55297 22624 ft 400 kts 216°
2026-04-28 15:48 42.35857 23.53439 23259 ft 407 kts 209°
2026-04-28 15:48 42.33166 23.52129 23828 ft 417 kts 198°
2026-04-28 15:48 42.30264 23.51575 24309 ft 427 kts 185°
2026-04-28 15:48 42.27255 23.51870 24776 ft 437 kts 172°
2026-04-28 15:49 42.24318 23.53055 25291 ft 444 kts 158°
2026-04-28 15:49 42.21587 23.54948 25709 ft 450 kts 151°
2026-04-28 15:49 42.18902 23.57137 26248 ft 453 kts 148°
2026-04-28 15:49 42.16241 23.59463 26702 ft 457 kts 147°
2026-04-28 15:50 42.13583 23.61840 27133 ft 460 kts 147°
2026-04-28 15:50 42.10902 23.64232 27529 ft 464 kts 147°
2026-04-28 15:50 42.08196 23.66618 28063 ft 465 kts 147°
2026-04-28 15:50 42.05471 23.68991 28503 ft 468 kts 148°
2026-04-28 15:51 42.02724 23.71359 28905 ft 471 kts 148°
2026-04-28 15:51 41.99949 23.73737 29361 ft 474 kts 148°
2026-04-28 15:51 41.97151 23.76128 29775 ft 478 kts 148°
2026-04-28 15:51 41.94331 23.78532 30116 ft 482 kts 148°
2026-04-28 15:52 41.91485 23.80957 30450 ft 485 kts 148°
2026-04-28 15:52 41.88631 23.83388 30794 ft 487 kts 148°
2026-04-28 15:52 41.85793 23.85803 31141 ft 489 kts 148°
2026-04-28 15:52 41.82918 23.88248 31563 ft 489 kts 148°
2026-04-28 15:53 41.80042 23.90691 31901 ft 491 kts 149°
2026-04-28 15:53 41.77146 23.93149 32283 ft 492 kts 149°
2026-04-28 15:53 41.74253 23.95601 32731 ft 491 kts 149°
2026-04-28 15:53 41.71355 23.98056 33165 ft 490 kts 149°
2026-04-28 15:54 41.68509 24.00465 33585 ft 490 kts 149°
2026-04-28 15:54 41.65629 24.02898 34003 ft 489 kts 149°
2026-04-28 15:54 41.62748 24.05330 34368 ft 489 kts 149°
2026-04-28 15:54 41.59878 24.07750 34766 ft 487 kts 149°
2026-04-28 15:55 41.57014 24.10163 35085 ft 487 kts 149°
2026-04-28 15:55 41.54150 24.12573 35427 ft 486 kts 149°
2026-04-28 15:55 41.51299 24.15030 35771 ft 486 kts 148°
2026-04-28 15:55 41.48494 24.17535 36088 ft 486 kts 147°
2026-04-28 15:56 41.45694 24.20068 36427 ft 485 kts 147°
2026-04-28 15:56 41.42935 24.22568 36726 ft 485 kts 147°
2026-04-28 15:56 41.40136 24.25093 37031 ft 485 kts 147°
2026-04-28 15:56 41.37330 24.27611 37342 ft 484 kts 147°
2026-04-28 15:57 41.34521 24.30119 37664 ft 484 kts 148°
2026-04-28 15:57 41.31718 24.32613 37971 ft 484 kts 148°
2026-04-28 15:57 41.28959 24.35063 38359 ft 482 kts 148°
2026-04-28 15:57 41.26168 24.37537 38782 ft 478 kts 148°
2026-04-28 15:58 41.23397 24.39993 39120 ft 475 kts 148°
2026-04-28 15:58 41.20681 24.42368 39452 ft 470 kts 151°
2026-04-28 15:58 41.17832 24.44443 39796 ft 465 kts 155°
2026-04-28 15:58 41.14953 24.46373 40154 ft 460 kts 156°
2026-04-28 15:59 41.12078 24.48243 40396 ft 459 kts 157°
2026-04-28 15:59 41.09202 24.50081 40637 ft 457 kts 157°
2026-04-28 15:59 41.06336 24.51899 40878 ft 456 kts 157°
2026-04-28 15:59 41.03479 24.53710 41055 ft 457 kts 158°
2026-04-28 16:00 40.97696 24.57377 41074 ft 465 kts 157°
2026-04-28 16:00 40.91801 24.61123 41077 ft 474 kts 157°
2026-04-28 16:01 40.85834 24.64923 41080 ft 483 kts 157°
2026-04-28 16:01 40.79703 24.68812 41080 ft 492 kts 157°
2026-04-28 16:02 40.73527 24.72733 41083 ft 491 kts 157°
2026-04-28 16:02 40.67403 24.76631 41076 ft 490 kts 157°
2026-04-28 16:03 40.61243 24.80523 41082 ft 490 kts 155°
2026-04-28 16:03 40.55120 24.84493 41079 ft 490 kts 155°
2026-04-28 16:04 40.49035 24.88431 41079 ft 490 kts 155°
2026-04-28 16:04 40.42875 24.92331 41086 ft 490 kts 155°
2026-04-28 16:05 40.36733 24.96176 41083 ft 490 kts 156°
2026-04-28 16:05 40.30558 25.00029 41084 ft 490 kts 156°
2026-04-28 16:06 40.24389 25.03874 41086 ft 491 kts 156°
2026-04-28 16:06 40.18245 25.07697 41082 ft 491 kts 156°
2026-04-28 16:07 40.12075 25.11529 41087 ft 491 kts 156°
2026-04-28 16:08 40.02793 25.17280 41073 ft 491 kts 156°
2026-04-28 16:08 39.96643 25.21081 41075 ft 491 kts 156°
2026-04-28 16:09 39.90761 25.25546 41077 ft 493 kts 141°
2026-04-28 16:09 39.88101 25.28347 41072 ft 494 kts 140°
2026-04-28 16:10 39.80407 25.37068 41086 ft 487 kts 139°
2026-04-28 16:10 39.72696 25.45877 41081 ft 498 kts 139°
2026-04-28 16:11 39.62267 25.57661 41072 ft 497 kts 139°
2026-04-28 16:12 39.54417 25.66484 41067 ft 496 kts 139°
2026-04-28 16:13 39.46617 25.75227 41065 ft 496 kts 139°
2026-04-28 16:14 39.36156 25.86912 41056 ft 495 kts 139°
2026-04-28 16:15 39.25721 25.98473 41045 ft 495 kts 140°
2026-04-28 16:15 39.20418 26.04147 41043 ft 495 kts 141°
2026-04-28 16:16 39.12485 26.12601 41035 ft 495 kts 140°
2026-04-28 16:17 39.04534 26.21092 41035 ft 495 kts 140°
2026-04-28 16:17 38.99251 26.26725 41036 ft 495 kts 140°
2026-04-28 16:18 38.93945 26.32370 41032 ft 494 kts 141°
2026-04-28 16:18 38.88633 26.38010 41034 ft 494 kts 141°
2026-04-28 16:19 38.83354 26.43604 41031 ft 495 kts 141°
2026-04-28 16:19 38.78111 26.49352 41023 ft 495 kts 139°
2026-04-28 16:20 38.72942 26.55216 41018 ft 496 kts 138°
2026-04-28 16:20 38.67797 26.61025 41016 ft 495 kts 139°
2026-04-28 16:21 38.62593 26.66846 41009 ft 495 kts 139°
2026-04-28 16:21 38.58260 26.71671 41000 ft 495 kts 139°
2026-04-28 16:22 38.53050 26.77459 41007 ft 495 kts 139°
2026-04-28 16:22 38.47880 26.83193 41000 ft 495 kts 139°
2026-04-28 16:23 38.42675 26.88954 40986 ft 495 kts 139°
2026-04-28 16:23 38.37477 26.94699 40979 ft 494 kts 139°
2026-04-28 16:24 38.32135 27.00222 40966 ft 493 kts 148°
2026-04-28 16:24 38.26051 27.04195 40968 ft 490 kts 156°
2026-04-28 16:25 38.19821 27.07683 40966 ft 489 kts 158°
2026-04-28 16:25 38.13544 27.11104 40968 ft 489 kts 158°
2026-04-28 16:26 38.07329 27.14509 40965 ft 489 kts 158°
2026-04-28 16:26 38.01079 27.17952 40956 ft 486 kts 158°
2026-04-28 16:27 37.94921 27.21346 40958 ft 484 kts 158°
2026-04-28 16:28 37.85597 27.26470 40951 ft 489 kts 158°
2026-04-28 16:28 37.79355 27.29896 40949 ft 489 kts 158°
2026-04-28 16:29 37.70014 27.35008 40944 ft 489 kts 158°
2026-04-28 16:30 37.60632 27.40140 40939 ft 489 kts 157°
2026-04-28 16:30 37.54418 27.43701 40933 ft 490 kts 156°
2026-04-28 16:31 37.48215 27.47290 40936 ft 490 kts 158°
2026-04-28 16:31 37.41931 27.50643 40935 ft 489 kts 159°
2026-04-28 16:32 37.35662 27.53862 40936 ft 489 kts 159°
2026-04-28 16:32 37.26222 27.58770 40942 ft 489 kts 159°
2026-04-28 16:33 37.20990 27.61598 40937 ft 489 kts 158°
2026-04-28 16:33 37.13732 27.65566 40939 ft 489 kts 158°
2026-04-28 16:34 37.07479 27.68962 40926 ft 489 kts 158°
2026-04-28 16:34 37.01200 27.72351 40931 ft 490 kts 158°
2026-04-28 16:35 36.94958 27.75712 40937 ft 491 kts 158°
2026-04-28 16:35 36.88669 27.79092 40937 ft 491 kts 158°
2026-04-28 16:36 36.82397 27.82458 40920 ft 491 kts 159°
2026-04-28 16:36 36.76108 27.85827 40936 ft 491 kts 159°
2026-04-28 16:37 36.69815 27.89192 40923 ft 491 kts 159°
2026-04-28 16:38 36.60395 27.94110 40937 ft 491 kts 159°
2026-04-28 16:38 36.54077 27.97381 40937 ft 492 kts 159°
2026-04-28 16:39 36.47752 28.00667 40940 ft 493 kts 159°
2026-04-28 16:39 36.41491 28.04146 40939 ft 493 kts 157°
2026-04-28 16:40 36.35370 28.07956 40940 ft 496 kts 148°
2026-04-28 16:40 36.32627 28.10571 40938 ft 498 kts 137°
2026-04-28 16:40 36.30155 28.13576 40915 ft 499 kts 135°
2026-04-28 16:41 36.25380 28.19899 40925 ft 503 kts 133°
2026-04-28 16:41 36.20660 28.26323 40925 ft 504 kts 133°
2026-04-28 16:42 36.15937 28.32695 40922 ft 504 kts 133°
2026-04-28 16:42 36.11164 28.39072 40925 ft 504 kts 133°
2026-04-28 16:43 36.06388 28.45422 40921 ft 504 kts 134°
2026-04-28 16:43 36.01597 28.51765 40923 ft 504 kts 134°
2026-04-28 16:44 35.96838 28.58053 40912 ft 504 kts 134°
2026-04-28 16:44 35.92038 28.64387 40922 ft 505 kts 134°
2026-04-28 16:45 35.87234 28.70696 40918 ft 504 kts 135°
2026-04-28 16:45 35.82200 28.76719 40926 ft 503 kts 138°
2026-04-28 16:46 35.77108 28.82572 40925 ft 503 kts 138°
2026-04-28 16:46 35.72017 28.88482 40927 ft 503 kts 137°
2026-04-28 16:47 35.66955 28.94415 40926 ft 503 kts 137°
2026-04-28 16:47 35.61889 29.00364 40924 ft 503 kts 137°
2026-04-28 16:48 35.56814 29.06310 40928 ft 503 kts 137°
2026-04-28 16:48 35.51770 29.12207 40928 ft 503 kts 137°
2026-04-28 16:49 35.46692 29.18131 40931 ft 503 kts 137°
2026-04-28 16:49 35.41605 29.24055 40930 ft 503 kts 137°
2026-04-28 16:50 35.36515 29.29972 40930 ft 503 kts 138°
2026-04-28 16:50 35.31471 29.35823 40928 ft 503 kts 138°
2026-04-28 16:51 35.26377 29.41724 40933 ft 503 kts 138°
2026-04-28 16:51 35.21288 29.47607 40933 ft 503 kts 138°
2026-04-28 16:52 35.16192 29.53489 40942 ft 503 kts 138°
2026-04-28 16:52 35.11135 29.59327 40983 ft 502 kts 138°
2026-04-28 16:53 35.06067 29.65204 40984 ft 502 kts 137°
2026-04-28 16:53 35.01003 29.71116 40942 ft 503 kts 137°
2026-04-28 16:54 34.95983 29.77025 40916 ft 504 kts 137°
2026-04-28 16:54 34.90945 29.83011 40944 ft 503 kts 137°
2026-04-28 16:55 34.86428 29.88434 40955 ft 503 kts 136°
2026-04-28 16:55 34.82538 29.93150 40959 ft 503 kts 136°